WESTFORD NEEDLES, 2375

Orbit data source: Space-Track

WESTFORD NEEDLES, 2375 is space debris in LEO originally from a launch on Thu, 09 May 1963 UTC launched from the Air Force Western Test Range (AFWTR). Debris objects in space refer to the collection of defunct objects orbiting the Earth. Examples of debris include non-operational satellites, rocket bodies, and fragments generated from explosions, collisions, or faulty payload assembly.

Loading next visibility...
Identifier
2375, 1963-014W
Orbit
LEO
Country
Flag of USUS
Related business
Manufacturer
Unknown
Mission
Spacecraft
Bus & Motor
Unknown
Mass
Unknown
Launch date (UTC)
1963-05-09 (63 years ago)
Launch vehicle
Unknown
Launch site
Air Force Western Test Range (AFWTR)
Object type
Payload
Rocket body
Debris
Shape & HBR
Unknown shape, 0.3 m
Radar Cross Section
Medium (>0.1 m² and <1 m²)

Expand to show TLE details & history
Last TLE update: 16 hours ago

TLE from 16 hours ago
0 WESTFORD NEEDLES
1 02375U 63014W   26227.26180095  .00000000  00000-0 -10695-2 0  9995
2 02375  86.5955  44.4565 1642534 110.3505 268.1033  8.74987049376594
Epoch: 2026-08-15T06:16Z
TLE epoch observation values (Epoch: 2026-08-15T06:16:59.602Z)
Latitude
-0.00002°
Longitude
-13.46705°
Altitude
3,887.645 km
Speed
6.132 km/s
True Right ascension
02h 57m 49s
True Declination
0° 00' 00"
Sunlit
Object was in daylight at epoch
Visualization orbit readout
Latitude
Unknown
Longitude
Unknown
Altitude
Unknown
Speed
Unknown
Apparent Right ascension
Unknown
Apparent Declination
Unknown
Sunlit
N/A
Visualization observer readout
Local Sidereal Time
12:50:29
Azimuth
Unknown
Elevation
Unknown
Doppler factor
Unknown
Orbital elements
Apogee altitude
5,201.162 km
Perigee altitude
1,933.936 km
Semi-major axis
9,945.686 km
Eccentricity
0.16425
Inclination
86.5955°
RAAN
44.4565°
Arg. of periapsis
110.3505°
True anomaly
249.73762°
Mean anomaly
268.1033°
Eccentric anomaly
258.8693°
Mean motion
2.18822 °/min
Orbital period
164.52 mins
BSTAR
-0.0010695
Loading maneuver chart data...
Computing Atmospheric mass density...

Documentation

Showing up to 5 results
|